[[{"header":{"parameterUnit":"m.s-1","parameterCategory":1,"la1":30.2991,"la2":30.254,"lo1":-89.0895,"lo2":-89.0444,"dy":0.0017,"dx":0.0017,"nx":28,"ny":28,"refTime":"2024-09-30T09:00:00:Z","depth":0,"parameterNumber":2,"parameterNumberName":"U-component_of_WINDS"},"data":[0,0,0,0,0,0,0,0,0,0,0,0,0,0,0,0,0,0,0,0,0,0,0,0,0,0,0,0,0,0,0,0,0,0,0,0,0,0,0,0,0,0,0,0,0,0,0,0,0,0,0,0,0,0,0,0,0,0,1.4334,1.4335,0,1.4404,1.4405,1.4405,1.4366,1.4364,1.4362,1.4361,1.4434,1.4438,1.4442,0,0,0,0,0,0,0,0,0,0,0,0,0,1.4169,1.4173,1.4334,1.4335,1.4336,1.4404,1.4405,1.4406,1.4367,1.4364,1.4362,1.436,1.4433,1.4437,1.4442,0,0,0,0,0,0,0,0,0,0,0,0,0,1.424,1.4174,1.4334,1.4325,1.4324,1.4404,1.4405,1.4406,1.4367,1.4364,1.4361,1.4359,1.4431,1.4437,1.4443,1.4536,0,0,1.446,1.4462,0,0,0,0,0,0,0,0,1.4236,1.4246,1.4325,1.4325,1.4325,1.4373,1.4374,1.445,1.4368,1.4351,1.436,1.4357,1.4416,1.4423,1.4443,1.4539,1.4542,1.446,1.4464,1.4466,1.4468,0,0,0,0,0,0,0,1.4231,1.4243,1.4362,1.4326,1.4326,1.4318,1.4324,1.4388,1.4399,1.4352,1.435,1.4358,1.4416,1.4437,1.4444,1.4543,1.446,1.4465,1.4469,1.4471,1.472,1.4723,0,0,0,0,0,0,1.4227,1.4239,1.436,1.4364,1.4273,1.4323,1.433,1.4361,1.4398,1.4401,1.4361,1.4356,1.4429,1.4438,1.4447,1.4558,1.4466,1.4471,1.4475,1.4716,1.472,1.4724,0,0,0,0,0,0,1.4223,1.4238,1.4357,1.4301,1.4315,1.4329,1.4363,1.4364,1.4385,1.4405,1.4407,1.438,1.4427,1.4439,1.4514,1.456,1.4474,1.4479,1.4713,1.4718,1.4722,1.4781,0,0,0,0,0,0,1.4219,1.4237,1.4272,1.4302,1.4318,1.4422,1.4366,1.4367,1.4395,1.4389,1.4424,1.4427,1.4426,1.4505,1.4519,1.4566,1.4483,1.4708,1.4715,1.472,1.4775,1.4787,1.4798,0,0,0,0,0,1.4213,1.4287,1.4274,1.4289,1.4362,1.4425,1.4434,1.4431,1.4399,1.4434,1.4447,1.4425,1.4553,1.4513,1.4529,1.4578,1.4706,1.4713,1.472,1.477,1.4785,1.4798,0,0,0,0,0,0,1.4263,1.429,1.4277,1.4362,1.4391,1.4418,1.4463,1.4447,1.4487,1.4481,1.4476,1.4484,1.4562,1.4578,1.4533,1.467,1.4624,1.4635,1.4657,1.4671,1.4682,1.4677,1.4488,0,0,0,0,0,1.4283,1.4331,1.4353,1.4426,1.4441,1.445,1.4477,1.4472,1.4502,1.4515,1.4533,1.4564,1.4611,1.4642,1.4686,1.4777,1.4784,1.4819,1.483,1.4839,1.4848,1.4897,1.4913,1.4747,1.4747,1.4747,0,0,1.4327,1.4348,1.4378,1.4436,1.4458,1.4508,1.446,1.4516,1.4553,1.4524,1.4595,1.461,1.4644,1.4727,1.4765,1.4743,1.4896,1.4848,1.4856,1.486,1.4906,1.4922,1.4936,1.4752,1.4751,1.4751,0,0,1.4431,1.4452,1.4515,1.4538,1.4572,1.4577,1.4592,1.4621,1.463,1.4701,1.468,1.4725,1.4806,1.4831,1.4854,1.4968,1.495,1.4983,1.5042,1.509,1.5103,1.5115,1.5155,1.517,1.4992,1.4992,1.4993,0,1.4481,1.4555,1.4549,1.4606,1.4632,1.4607,1.4671,1.4694,1.4741,1.476,1.4734,1.4835,1.4856,1.4945,1.4973,1.4993,1.501,1.4979,1.5102,1.5113,1.5124,1.5162,1.5178,1.4996,1.4996,1.4995,1.4995,0,1.4614,1.4666,1.4713,1.4758,1.4789,1.4849,1.4853,1.4886,1.4879,1.4887,1.496,1.4985,1.5033,1.5054,1.5048,1.5142,1.5127,1.5102,1.5056,1.5144,1.518,1.5194,1.5001,1.5,1.4999,1.4998,0,0,1.4752,1.4792,1.481,1.483,1.4865,1.4905,1.4965,1.5011,1.5039,1.5073,1.5122,1.5191,1.5168,1.5195,1.5191,1.5233,1.5321,1.5202,1.5203,1.5223,1.5426,1.5445,1.5462,1.5309,1.5312,1.5314,1.5423,0,1.4858,1.496,1.4957,1.5052,1.51,1.5077,1.5128,1.5156,1.5166,1.5208,1.5218,1.5267,1.5232,1.5248,1.5289,1.5302,1.5362,1.5294,1.5356,1.5358,1.5347,1.5481,1.5501,1.5603,1.5437,1.544,1.5442,0,1.4996,1.5033,1.5133,1.5161,1.5181,1.5227,1.5269,1.531,1.5341,1.5345,1.5375,1.5364,1.5424,1.5377,1.546,1.5414,1.5439,1.5449,1.5453,1.5458,1.5405,1.549,1.5635,1.565,1.5464,1.5462,1.546,0,1.5085,1.5161,1.523,1.5248,1.5283,1.5316,1.5332,1.536,1.5388,1.5426,1.5444,1.5488,1.5513,1.5548,1.5549,1.5514,1.5633,1.5586,1.5638,1.5638,1.5664,1.5662,1.5815,1.5681,1.5681,1.5681,1.568,0,1.5205,1.5267,1.5271,1.5313,1.5382,1.5378,1.5447,1.546,1.5485,1.553,1.5514,1.5556,1.5556,1.56,1.5602,1.5671,1.5682,1.5687,1.5687,1.5688,1.5688,1.5704,1.5697,1.5685,1.5684,1.5683,1.5682,0,1.5316,1.5321,1.5395,1.5422,1.543,1.548,1.5503,1.5544,1.5551,1.5609,1.5622,1.5634,1.5685,1.569,1.575,1.5751,1.5833,1.5826,1.5823,1.5821,1.5873,1.5868,1.6042,1.6064,1.5916,1.5917,1.5918,0,1.5392,1.5439,1.547,1.5499,1.5516,1.5563,1.5591,1.559,1.562,1.5659,1.5695,1.5744,1.5783,1.5865,1.588,1.5925,1.5918,1.5976,1.5925,1.5925,1.5919,1.5916,1.592,1.5986,1.5988,1.5989,1.599,0,1.5525,1.5525,1.5566,1.5609,1.5643,1.5677,1.5708,1.5732,1.5734,1.577,1.5821,1.5851,1.5911,1.596,1.6004,1.6022,1.6007,1.6006,1.602,1.6022,1.6018,1.6021,1.5849,1.6002,1.6001,1.6,1.5999,1.5999,1.5621,1.5661,1.5689,1.5736,1.5759,1.5789,1.5828,1.584,1.5883,1.5931,1.5928,1.5984,1.6014,1.6072,1.6093,1.6137,1.6118,1.6139,1.6144,1.6149,1.6154,1.6011,1.6145,1.6145,1.6145,1.6144,1.6144,0,1.5753,1.577,1.5812,1.5856,1.5893,1.5875,1.5908,1.5941,1.599,1.6019,1.6058,1.6116,1.6164,1.6182,1.6228,1.626,1.6254,1.6272,1.627,1.6274,1.6169,1.6152,1.6276,1.6276,1.6276,1.6276,1.6276,1.6276,1.5826,1.5893,1.5897,1.5976,1.5992,1.6047,1.6068,1.6095,1.6118,1.6184,1.6223,1.6234,1.6259,1.6306,1.6349,1.6353,1.6371,1.6392,1.6393,1.6295,1.6281,1.6269,1.6252,1.6396,1.6396,1.6494,1.6495,1.6496]},{"header":{"parameterUnit":"m.s-1","parameterCategory":1,"la1":30.2991,"la2":30.254,"lo1":-89.0895,"lo2":-89.0444,"dy":0.0017,"dx":0.0017,"nx":28,"ny":28,"refTime":"2024-09-30T09:00:00:Z","depth":0,"parameterNumber":3,"parameterNumberName":"V-component_of_WINDS"},"data":[0,0,0,0,0,0,0,0,0,0,0,0,0,0,0,0,0,0,0,0,0,0,0,0,0,0,0,0,0,0,0,0,0,0,0,0,0,0,0,0,0,0,0,0,0,0,0,0,0,0,0,0,0,0,0,0,0,0,-0.68,-0.68,0,-0.6733,-0.6732,-0.6731,-0.6718,-0.6718,-0.6719,-0.6719,-0.6649,-0.6646,-0.6644,0,0,0,0,0,0,0,0,0,0,0,0,0,-0.6918,-0.6916,-0.6801,-0.68,-0.6799,-0.6733,-0.6732,-0.6731,-0.6718,-0.6718,-0.6719,-0.672,-0.6649,-0.6647,-0.6644,0,0,0,0,0,0,0,0,0,0,0,0,0,-0.686,-0.6915,-0.6801,-0.6784,-0.6782,-0.6733,-0.6732,-0.6731,-0.6717,-0.6718,-0.6719,-0.672,-0.665,-0.6647,-0.6643,-0.6605,0,0,-0.6632,-0.6631,0,0,0,0,0,0,0,0,-0.6864,-0.6856,-0.6788,-0.6785,-0.6783,-0.6734,-0.6747,-0.6688,-0.6717,-0.6742,-0.6719,-0.672,-0.6676,-0.6671,-0.6656,-0.6602,-0.6599,-0.6632,-0.663,-0.6628,-0.6627,0,0,0,0,0,0,0,-0.6868,-0.6859,-0.6774,-0.6787,-0.6784,-0.678,-0.6773,-0.6736,-0.6705,-0.674,-0.6739,-0.6731,-0.6675,-0.666,-0.6654,-0.6598,-0.6632,-0.6629,-0.6627,-0.6625,-0.6509,-0.6508,0,0,0,0,0,0,-0.6875,-0.6862,-0.6776,-0.6772,-0.6826,-0.6777,-0.6769,-0.6749,-0.6706,-0.67,-0.673,-0.6731,-0.6665,-0.6659,-0.6652,-0.6604,-0.6628,-0.6625,-0.6623,-0.651,-0.6508,-0.6507,0,0,0,0,0,0,-0.6877,-0.6867,-0.6778,-0.6817,-0.6805,-0.6775,-0.6752,-0.6747,-0.6732,-0.6699,-0.6693,-0.672,-0.6666,-0.6657,-0.6617,-0.6601,-0.6623,-0.662,-0.6511,-0.6509,-0.6508,-0.6508,0,0,0,0,0,0,-0.6881,-0.6868,-0.6853,-0.6816,-0.6803,-0.6745,-0.6751,-0.6745,-0.6726,-0.6725,-0.6687,-0.6682,-0.6666,-0.6622,-0.6613,-0.6597,-0.6617,-0.6512,-0.651,-0.6508,-0.6509,-0.6507,-0.6505,0,0,0,0,0,-0.6885,-0.6856,-0.6853,-0.6842,-0.6784,-0.6744,-0.6736,-0.6718,-0.6725,-0.6709,-0.6688,-0.6683,-0.6605,-0.6618,-0.6608,-0.659,-0.6513,-0.6511,-0.6509,-0.651,-0.6507,-0.6505,0,0,0,0,0,0,-0.6891,-0.6851,-0.6847,-0.6805,-0.6778,-0.6742,-0.6722,-0.6716,-0.6686,-0.6687,-0.6666,-0.6658,-0.6619,-0.6601,-0.6616,-0.6551,-0.6559,-0.6555,-0.6564,-0.6561,-0.6559,-0.6563,-0.6614,0,0,0,0,0,-0.6888,-0.6859,-0.6825,-0.6791,-0.6778,-0.6752,-0.6734,-0.6723,-0.6694,-0.6682,-0.6658,-0.663,-0.6599,-0.6579,-0.6549,-0.6507,-0.6498,-0.649,-0.6488,-0.6486,-0.6482,-0.6458,-0.6454,-0.65,-0.65,-0.65,0,0,-0.688,-0.6854,-0.6837,-0.6792,-0.677,-0.674,-0.6743,-0.6711,-0.6689,-0.6678,-0.6638,-0.662,-0.6587,-0.6546,-0.6527,-0.653,-0.6468,-0.6483,-0.6482,-0.6479,-0.6456,-0.6451,-0.6448,-0.6499,-0.6499,-0.6499,0,0,-0.6851,-0.6829,-0.6798,-0.6776,-0.6743,-0.6726,-0.6719,-0.6684,-0.6671,-0.6631,-0.6623,-0.6596,-0.6543,-0.652,-0.6501,-0.6465,-0.6459,-0.6456,-0.6443,-0.642,-0.6417,-0.6413,-0.6399,-0.6395,-0.6452,-0.6452,-0.6452,0,-0.6845,-0.68,-0.6783,-0.6752,-0.6732,-0.6721,-0.669,-0.6669,-0.6628,-0.6614,-0.6619,-0.6552,-0.653,-0.6483,-0.6474,-0.646,-0.645,-0.6459,-0.6419,-0.6415,-0.6412,-0.6398,-0.6393,-0.6452,-0.6452,-0.6452,-0.6452,0,-0.6794,-0.6764,-0.6743,-0.6703,-0.6681,-0.665,-0.6628,-0.6608,-0.6599,-0.6582,-0.6542,-0.6515,-0.6479,-0.6467,-0.6458,-0.6419,-0.6422,-0.6423,-0.643,-0.6407,-0.6394,-0.6389,-0.6452,-0.6452,-0.6452,-0.6452,0,0,-0.6765,-0.6718,-0.671,-0.6692,-0.6656,-0.6631,-0.66,-0.6565,-0.6548,-0.652,-0.6493,-0.6449,-0.645,-0.6429,-0.6417,-0.6397,-0.6369,-0.64,-0.6399,-0.6395,-0.6324,-0.6323,-0.6317,-0.6366,-0.6365,-0.6364,-0.6327,0,-0.6731,-0.6674,-0.6659,-0.6611,-0.6582,-0.6572,-0.6545,-0.6519,-0.6503,-0.6476,-0.6458,-0.6426,-0.643,-0.6417,-0.6397,-0.6377,-0.6355,-0.638,-0.634,-0.6338,-0.6347,-0.6311,-0.6309,-0.6275,-0.6322,-0.6321,-0.632,0,-0.6682,-0.6654,-0.6604,-0.6571,-0.6558,-0.6534,-0.6501,-0.6475,-0.6446,-0.6436,-0.6413,-0.6403,-0.637,-0.6381,-0.6334,-0.6352,-0.6335,-0.6322,-0.6321,-0.6315,-0.6327,-0.6303,-0.6264,-0.6258,-0.6312,-0.6313,-0.6313,0,-0.6665,-0.6615,-0.6578,-0.6563,-0.6524,-0.6507,-0.649,-0.6462,-0.6442,-0.6413,-0.64,-0.6368,-0.635,-0.6326,-0.6308,-0.6317,-0.6263,-0.6272,-0.6253,-0.6253,-0.624,-0.6241,-0.6197,-0.6232,-0.6232,-0.6232,-0.6232,0,-0.6627,-0.6597,-0.657,-0.6547,-0.6512,-0.6495,-0.6461,-0.6443,-0.6419,-0.6392,-0.6382,-0.6358,-0.6336,-0.6308,-0.6294,-0.6258,-0.625,-0.624,-0.6237,-0.624,-0.6242,-0.6228,-0.6229,-0.6231,-0.6231,-0.6231,-0.6231,0,-0.6602,-0.6582,-0.6542,-0.6508,-0.6499,-0.6475,-0.6447,-0.6424,-0.6408,-0.6375,-0.6366,-0.634,-0.6307,-0.6288,-0.6246,-0.6236,-0.6196,-0.6194,-0.6206,-0.6204,-0.6185,-0.6187,-0.613,-0.6121,-0.6163,-0.6162,-0.6162,0,-0.6578,-0.6554,-0.6519,-0.6501,-0.6484,-0.6454,-0.6435,-0.6417,-0.6396,-0.6362,-0.6343,-0.631,-0.6282,-0.6231,-0.6208,-0.6176,-0.6173,-0.6155,-0.6168,-0.6172,-0.6171,-0.6172,-0.617,-0.6152,-0.6152,-0.6151,-0.6151,0,-0.6538,-0.653,-0.6502,-0.6471,-0.6447,-0.6421,-0.6396,-0.6381,-0.6359,-0.6337,-0.6303,-0.6282,-0.624,-0.6207,-0.6173,-0.6156,-0.6149,-0.6148,-0.6141,-0.6144,-0.6152,-0.6146,-0.6199,-0.6149,-0.6149,-0.6149,-0.6149,-0.6149,-0.6512,-0.6491,-0.6462,-0.6431,-0.6411,-0.6387,-0.6364,-0.6346,-0.6317,-0.6282,-0.6273,-0.6238,-0.621,-0.6164,-0.6146,-0.6118,-0.6121,-0.6112,-0.6109,-0.6107,-0.6106,-0.6157,-0.6112,-0.6112,-0.6112,-0.6112,-0.6112,0,-0.6471,-0.6453,-0.6425,-0.6389,-0.6365,-0.6362,-0.6334,-0.6314,-0.6283,-0.6257,-0.6231,-0.6192,-0.616,-0.6136,-0.6103,-0.6086,-0.6082,-0.6078,-0.6078,-0.6074,-0.6106,-0.6114,-0.6081,-0.6081,-0.6081,-0.6081,-0.6081,-0.6081,-0.6447,-0.641,-0.6399,-0.6351,-0.6333,-0.6299,-0.6283,-0.6261,-0.6241,-0.6198,-0.6172,-0.6157,-0.6131,-0.6097,-0.6068,-0.6061,-0.6049,-0.6045,-0.6038,-0.6068,-0.6072,-0.6075,-0.6083,-0.6043,-0.6043,-0.6008,-0.6008,-0.6008]}]]